STARLINK-31913, 59667

Orbit data source: Space-Track

STARLINK-31913, 59667 is a payload satellite owned by SpaceX/Seattle (US) in LEO that was launched on Mon, 06 May 2024 UTC via an FALCON 9 launch vehicle from the Air Force Eastern Test Range (AFETR). Payload-class satellites include a variety of spacecraft equipped with specific instruments for various scientific and technological missions. These include communications satellites like Starlink; space stations such as the ISS; scientific satellites like the Hubble; Earth observation satellites from companies like Planet Labs, Umbra, and HawkEye 360; GPS; miniature CubeSats for education and research; and military/defense satellites.

Loading next visibility...
Identifier
59667, 2024-084P
Orbit
LEO
Country
Flag of USUS
Related business
Manufacturer
SpaceX/Seattle
Mission
Operational Commercial Communications
Bus & Motor
STARLINK V2M, Unknown motor
Mass
730 kg wet, ~700 kg dry
Launch date (UTC)
2024-05-06 (2 years ago)
Launch vehicle
FALCON 9
Launch site
Air Force Eastern Test Range (AFETR)
Object type
Payload
Rocket body
Debris
Shape & HBR
Box + 2 Pan, 17.7 m
Radar Cross Section
33.884 m², Large (>1 m²)

Expand to show TLE details & history
Last TLE update: 3 days ago

TLE from 3 days ago
0 STARLINK-31913
1 59667U 24084P   26171.07312732 -.00004861  00000-0 -16719-3 0  9991
2 59667  43.0007 179.9299 0000968 179.7394 180.3459 15.27592647120076
Epoch: 2026-06-20T01:45Z
TLE epoch observation values (Epoch: 2026-06-20T01:45:18.200Z)
Latitude
0.00003°
Longitude
-114.68889°
Altitude
483.451 km
Speed
7.625 km/s
True Right ascension
11h 59m 43s
True Declination
0° 00' 00"
Sunlit
Object was in daylight at epoch
Visualization orbit readout
Latitude
Unknown
Longitude
Unknown
Altitude
Unknown
Speed
Unknown
Apparent Right ascension
Unknown
Apparent Declination
Unknown
Sunlit
N/A
Visualization observer readout
Local Sidereal Time
00:50:59
Azimuth
Unknown
Elevation
Unknown
Doppler factor
Unknown
Orbital elements
Apogee altitude
485.621 km
Perigee altitude
484.292 km
Semi-major axis
6,863.093 km
Eccentricity
0.0001
Inclination
43.0007°
RAAN
179.9299°
Arg. of periapsis
179.7394°
True anomaly
180.34583°
Mean anomaly
180.3459°
Eccentric anomaly
180.34587°
Mean motion
3.81736 °/min
Orbital period
94.31 mins
BSTAR
-0.00016719
Loading maneuver chart data...
Computing Atmospheric mass density...
Loading historical data...
Loading historical data...
Loading historical data...
Loading historical data...
Loading historical data...
Loading historical data...
Loading historical data...

Documentation

Showing up to 5 results
|